Dewpoint
53 51 51 50 50 50 49 48 48 47 47 47 48 48 48 48 48 48 47 48 47 46 47 48 49 50 45 32 22 34 42 42 35 39 35 25 20 17 19 15 14 16 15 17 18 14 16
52 51 50 50 50 50 49 48 48 47 47 48 48 48 48 48 47 47 46 47 47 47 48 49 50 49 43 28 21 21 19 26 26 33 31 27 22 20 17 17 14 16 16 16 19 17 17
53 52 51 50 50 50 49 48 48 47 47 47 47 47 47 46 46 46 46 46 47 48 48 50 51 47 37 27 25 22 25 22 16 25 27 27 28 28 24 21 20 21 19 17 16 14 14
52 52 51 50 49 50 49 48 48 47 46 46 45 45 45 46 46 45 45 47 48 48 51 52 51 45 32 29 28 26 27 25 24 19 21 27 28 29 25 22 19 16 16 11 10 10 14
53 52 51 50 50 49 48 48 47 46 44 43 43 43 44 45 46 46 47 47 47 50 50 50 47 41 30 37 30 33 34 29 22 19 21 18 21 23 23 18 15 13 8 8 5 13 17
53 53 51 51 49 47 46 46 47 44 43 43 42 43 44 45 46 47 47 46 48 50 48 43 41 39 35 25 27 33 31 33 28 28 25 21 17 14 14 12 8 6 6 7 9 8 13
52 51 51 50 48 46 46 46 47 44 43 43 43 44 45 44 45 46 43 37 38 40 34 22 21 23 15 18 23 20 26 28 28 28 24 20 14 13 14 18 15 13 11 8 7 6 11
50 52 51 49 48 47 46 46 47 44 44 43 44 44 44 44 44 44 41 28 30 33 25 21 26 27 28 30 27 23 20 21 25 22 23 18 17 17 13 14 15 16 15 12 11 12 15
50 50 49 48 48 47 47 47 46 45 43 43 44 44 44 44 44 40 33 32 33 34 30 19 27 26 27 31 28 26 23 22 20 18 20 20 18 21 15 13 14 15 15 15 13 14 19
49 50 49 48 47 47 45 45 44 43 42 42 43 43 43 44 39 31 32 29 34 39 29 13 27 25 19 25 29 28 27 24 20 19 20 20 21 21 21 18 17 16 14 15 17 22 17
49 48 47 47 46 44 43 43 43 43 42 41 42 43 43 43 35 27 28 33 38 41 10 11 25 27 12 22 21 27 26 25 20 19 22 19 21 22 21 21 19 17 20 25 25 24 24
47 48 46 45 44 43 43 43 43 42 41 41 42 43 43 39 37 31 33 37 40 29 1 12 16 11 7 14 18 22 24 26 23 17 17 19 20 23 23 23 22 22 25 26 25 23 21
47 46 46 44 43 43 43 43 41 41 41 42 42 42 39 34 32 36 39 36 23 5 -0 9 11 8 2 9 15 17 16 20 21 21 18 16 17 19 23 26 28 23 25 21 19 23 19
46 45 45 43 42 41 41 41 41 41 40 41 41 39 38 33 38 41 38 26 6 2 3 10 7 4 -6 7 10 6 10 11 13 18 16 15 14 16 18 25 24 25 25 21 12 14 19
42 42 43 42 41 41 41 41 40 40 40 41 40 37 38 39 43 40 30 14 7 10 11 10 3 -6 -2 8 3 -1 6 11 21 31 29 23 17 22 26 26 26 23 23 22 21 21 21
43 44 43 42 41 40 39 41 40 39 40 41 33 32 32 40 42 37 24 13 8 13 14 9 3 1 6 4 4 0 -0 23 30 32 32 29 23 24 26 31 28 24 27 27 29 20 17
41 41 44 42 40 39 39 39 39 39 41 39 33 27 34 39 41 26 28 12 11 14 16 14 10 10 10 12 11 11 9 22 30 29 29 31 29 24 26 28 25 27 30 31 29 26 22
40 41 43 41 39 39 39 39 39 39 40 38 33 33 34 38 30 24 21 17 22 16 17 16 19 16 16 15 14 14 14 14 29 28 23 32 34 25 24 26 28 32 28 29 28 23 25
41 42 40 38 38 39 40 39 39 40 39 32 26 25 33 37 33 23 21 17 18 15 15 15 14 15 16 17 16 15 16 17 24 28 30 31 29 25 20 28 27 26 31 31 32 32 29
41 42 39 38 39 39 40 39 38 39 39 37 32 34 28 28 25 25 19 18 16 19 15 17 16 17 18 18 18 22 21 22 28 24 35 36 30 25 21 23 28 25 25 30 32 31 27
41 39 38 38 40 40 40 39 39 39 40 37 32 31 27 29 23 21 20 18 16 14 14 16 14 22 21 17 16 16 20 20 20 33 37 36 27 27 28 29 30 29 28 28 28 28 26
39 39 38 39 40 39 39 39 39 39 40 33 36 27 24 23 21 20 18 14 10 11 16 15 16 14 16 16 16 18 17 20 24 29 30 32 29 29 30 21 20 19 19 16 15 12 11
39 39 38 37 39 40 39 38 39 39 38 30 32 33 28 21 21 23 23 15 13 16 17 15 16 17 17 17 19 23 25 26 26 26 31 30 30 31 26 25 18 16 15 11 16 20 26
39 40 38 37 39 39 40 39 39 39 38 31 31 28 29 23 16 17 17 17 19 18 19 17 19 22 19 22 25 25 24 23 25 25 27 28 30 31 24 20 15 21 18 17 15 29 29
38 38 38 36 38 39 39 39 39 40 40 33 32 30 30 28 17 17 19 19 20 21 21 20 18 22 27 26 25 19 19 23 22 23 26 30 33 28 22 23 12 16 22 23 24 31 33
37 36 37 40 39 39 39 40 39 40 41 38 34 35 31 32 20 20 22 21 21 23 24 24 23 28 30 32 26 19 15 15 16 18 24 29 29 29 21 11 11 27 25 26 26 25 34
38 37 38 39 39 40 40 40 40 40 41 41 41 40 34 33 26 26 23 25 25 24 26 24 27 27 32 29 27 25 21 19 16 16 22 24 24 23 22 17 20 29 28 29 21 31 36
38 38 38 39 39 41 41 40 40 40 40 42 41 41 38 36 29 28 28 27 27 28 24 27 27 30 30 29 29 26 30 23 20 19 20 19 20 22 20 18 18 33 29 30 33 36 35
37 38 39 39 41 40 41 41 40 40 41 41 38 40 39 37 32 37 35 34 32 30 30 27 30 32 33 28 26 27 30 30 25 19 27 28 30 30 32 32 34 33 33 33 34 34 34
Lifted_Index
12 12 13 13 13 14 14 14 14 15 15 15 15 15 16 16 16 17 17 17 18 18 17 17 16 16 15 14 14 15 15 14 12 10 9 9 9 8 8 7 7 7 7 7 7 8 8
12 12 13 13 13 14 14 14 14 15 15 15 15 15 16 16 17 17 17 18 18 17 17 16 16 15 14 13 14 15 15 14 12 10 9 8 8 8 7 7 7 7 7 7 7 8 8
11 12 13 13 13 13 14 14 14 15 15 15 15 15 16 16 17 18 18 18 17 17 16 15 14 14 13 12 13 13 13 13 12 11 9 8 7 7 7 7 7 7 7 7 7 7 7
11 12 12 13 13 13 13 14 14 14 15 15 15 16 16 17 17 17 17 17 16 15 14 13 13 12 12 12 12 11 11 11 11 11 10 9 8 7 6 7 7 7 7 6 6 5 5
11 12 12 13 13 13 14 14 14 14 15 15 16 16 16 17 17 17 17 16 15 13 12 12 11 10 10 10 10 9 9 9 9 10 10 9 8 7 7 7 6 6 6 5 4 4 4
11 11 12 13 13 14 14 14 14 15 15 15 15 16 16 16 16 16 15 14 12 11 11 10 10 9 9 9 9 8 7 7 7 8 8 8 8 7 6 6 5 5 4 4 3 3 3
11 11 12 12 13 14 14 14 14 15 15 15 15 15 15 15 15 15 14 12 11 10 10 10 10 9 9 9 8 8 8 7 6 6 6 7 6 6 5 5 5 4 4 3 3 2 3
11 11 12 12 13 13 13 13 14 15 15 15 15 15 15 15 14 13 12 12 11 11 10 9 9 8 8 8 7 7 7 7 6 5 5 5 5 5 5 5 5 4 3 3 2 2 2
11 11 12 12 13 13 13 13 14 14 15 15 15 15 15 14 14 12 12 12 12 10 9 8 7 7 7 6 6 6 6 6 6 5 4 4 4 4 4 4 4 3 2 2 1 1 1
11 11 12 12 12 13 13 14 14 14 14 14 14 14 14 14 13 12 12 12 11 9 7 6 6 6 6 6 5 5 5 6 5 5 4 4 3 3 3 3 3 2 1 1 1 0 0
11 11 12 12 13 13 14 14 14 14 14 14 14 14 14 13 12 11 11 11 9 7 5 5 6 6 6 5 5 5 5 5 5 4 4 4 3 3 3 2 2 2 1 0 -0 -0 -0
11 11 12 12 13 13 13 14 14 14 14 14 14 14 13 12 11 11 11 9 7 5 4 5 6 6 6 5 5 4 4 4 4 4 4 3 3 3 2 2 2 1 0 -0 -1 -1 -0
11 11 12 12 13 13 13 13 14 14 14 14 14 13 13 11 10 10 9 7 5 4 5 6 6 7 6 6 5 5 4 3 3 3 2 2 2 2 2 2 1 1 -0 -0 -1 -1 -0
12 12 12 12 13 13 13 13 14 14 13 13 13 12 11 10 9 8 7 5 4 4 5 6 6 6 6 6 6 6 5 3 2 1 1 0 0 1 2 1 1 0 0 -0 -0 -0 -0
12 12 12 12 13 13 13 13 13 13 13 12 11 10 9 8 7 7 6 5 5 6 6 6 6 6 6 6 6 6 5 3 1 0 0 -0 -1 -0 0 0 0 0 0 -0 -0 -0 -0
12 12 12 12 13 13 13 13 13 13 12 11 9 8 7 7 7 6 6 5 6 7 7 7 6 6 5 6 6 5 4 2 1 0 0 -0 -1 -1 -1 -0 -0 0 0 0 -0 -0 -0
12 12 12 12 13 13 13 13 12 11 10 9 7 6 7 7 6 6 6 6 7 8 8 7 7 6 6 5 5 4 3 2 1 1 1 0 -0 -1 -1 -1 -0 -0 0 0 0 -0 -0
12 12 12 12 13 13 12 11 10 9 9 8 6 6 6 6 6 5 6 6 7 8 7 7 7 6 5 4 3 3 2 1 1 1 2 1 0 -1 -1 -1 -1 -0 0 0 0 -0 -0
12 12 12 13 12 11 10 9 9 8 8 7 6 6 6 6 5 5 6 7 7 7 7 6 6 5 3 3 2 1 1 1 1 1 2 2 1 -0 -1 -1 -1 -0 -0 -0 -0 -0 -0
11 12 12 12 11 10 9 8 8 8 7 7 6 5 6 6 6 6 7 7 7 7 6 6 5 3 2 2 1 1 1 1 1 1 2 2 1 0 -1 -1 -0 -0 -0 -0 -0 -0 -0
11 11 11 10 9 8 7 7 7 8 7 7 6 5 5 6 6 6 7 7 7 6 6 5 4 3 3 2 2 2 1 1 1 1 2 2 1 0 -0 -0 -0 -0 -0 0 0 0 0
11 11 10 9 8 7 7 7 7 7 7 7 6 6 6 6 6 7 7 7 6 6 6 5 5 4 4 3 3 3 2 2 2 2 2 2 2 1 -0 -0 0 0 0 1 1 1 1
11 10 9 8 7 7 7 7 7 7 7 7 6 6 6 6 6 6 6 6 6 6 6 5 5 5 4 4 4 3 3 2 2 2 3 3 2 1 0 0 0 1 1 1 1 1 1
10 9 9 8 7 7 7 7 7 8 7 7 7 6 6 6 6 6 6 5 5 5 5 5 5 4 4 4 4 3 2 2 2 3 3 3 2 1 0 1 1 1 1 1 1 1 1
9 9 8 7 7 7 7 7 7 7 7 7 7 6 6 5 5 6 5 5 5 5 5 5 4 4 3 3 3 2 1 1 2 2 2 2 1 1 1 1 1 1 1 1 1 1 1
9 9 7 7 7 7 7 7 7 7 7 7 7 6 6 5 5 5 5 4 4 4 4 4 3 3 3 3 2 2 1 0 1 1 1 1 1 0 0 1 1 1 1 1 1 1 2
9 8 8 7 7 7 7 7 7 7 7 6 6 6 6 5 5 4 4 4 4 4 3 2 2 2 2 2 1 1 0 -0 0 1 1 1 0 0 0 0 0 1 1 1 1 2 2
8 8 8 7 7 7 7 7 7 7 7 6 6 6 6 6 5 4 4 4 3 2 1 1 1 2 2 2 1 1 -0 -0 -0 0 0 0 0 -0 -0 0 1 1 2 2 2 3 3
8 8 8 7 7 7 7 7 7 7 7 6 6 6 6 6 5 4 4 3 2 1 1 0 1 2 2 2 1 1 -0 -0 -0 0 0 -0 -0 -0 -0 0 1 2 2 3 3 4 4